Location: Orange Harbor Mobile Home Park
(26.6923°N, 81.7937°W)
Time: 08:05:51
(UTC+00:00)

SEDSat Delta rocket - Pass Details

Date: 19 September 2020
Orbit: 533 x 1000 km, 31.4° (Epoch: 30 October)

Event Time Altitude Azimuth Distance (km) Brightness Sun altitude
Rises 00:44:59 0° 286° (WNW) 3,239 8.5 -18.0°
Reaches altitude 10° 00:47:39 10° 283° (WNW) 2,229 7.2 -18.6°
Maximum altitude 00:52:45 59° 204° (SSW) 762 3.5 -19.7°
Enters shadow 00:54:18 38° 144° (SE) 971 3.7 -20.1°
